Location: Blankensee
(53.5126°N, 14.3055°E)
Time: 17:27:06
(UTC+00:00)

IRAS Rocket - Pass Details

Date: 08 August 2020
Orbit: 847 x 878 km, 100.1° (Epoch: 19 September)

Event Time Altitude Azimuth Distance (km) Brightness Sun altitude
Exits shadow 00:06:12 21° 147° (SSE) 1,823 5.6 -19.3°
Maximum altitude 00:09:55 71° 68° (ENE) 918 4.4 -19.2°
Drops below altitude 10° 00:15:31 10° 345° (NNW) 2,532 7.5 -19.0°
Sets 00:17:55 0° 343° (NNW) 3,478 8.3 -18.8°
